This is the latest recevied weather packets stored in our database for station/object OZ1IEP-5. If no packets are shown the sender has not sent any weather packets the latest 10 day(s).
| Time | Temp. | Humidity | Pressure | Rain* | Wind** | Luminosity | Snow |
|---|---|---|---|---|---|---|---|
| 1787849406 | 20.56° C | 60% | 1017.7 hPa | 0 mm | - | 42 W/m² | - |
| 1787848806 | 20.56° C | 59% | 1017.8 hPa | 0 mm | - | 42 W/m² | - |
| 1787848207 | 21.11° C | 58% | 1017.9 hPa | 0 mm | - | 47 W/m² | - |
| 1787847606 | 21.11° C | 56% | 1018 hPa | 0 mm | - | 44 W/m² | - |
| 1787847006 | 21.11° C | 54% | 1018.2 hPa | 0 mm | - | 44 W/m² | - |
| 1787846409 | 21.11° C | 56% | 1018.3 hPa | 0 mm | - | 49 W/m² | - |
| 1787845805 | 21.67° C | 57% | 1018.3 hPa | 0 mm | - | 53 W/m² | - |
| 1787845205 | 21.67° C | 59% | 1018.4 hPa | 0 mm | - | 74 W/m² | - |
| 1787844608 | 21.67° C | 59% | 1018.4 hPa | 0 mm | - | 91 W/m² | - |
| 1787844006 | 21.67° C | 58% | 1018.5 hPa | 0 mm | - | 139 W/m² | - |
| 1787843406 | 22.22° C | 58% | 1018.5 hPa | 0 mm | - | 69 W/m² | - |
| 1787842808 | 22.22° C | 59% | 1018.7 hPa | 0 mm | - | 91 W/m² | - |
| 1787842206 | 22.22° C | 60% | 1018.7 hPa | 0 mm | - | 283 W/m² | - |
| 1787841605 | 22.22° C | 61% | 1018.7 hPa | 0 mm | - | 441 W/m² | - |
| 1787841008 | 22.22° C | 60% | 1018.8 hPa | 0 mm | - | 496 W/m² | - |
| 1787840405 | 22.22° C | 60% | 1018.7 hPa | 0 mm | - | 510 W/m² | - |
| 1787839805 | 22.22° C | 60% | 1018.8 hPa | 0 mm | - | 529 W/m² | - |
| 1787839207 | 22.22° C | 59% | 1018.8 hPa | 0 mm | - | 547 W/m² | - |
| 1787838606 | 22.22° C | 59% | 1019.1 hPa | 0 mm | - | 568 W/m² | - |
| 1787838006 | 22.78° C | 57% | 1019.1 hPa | 0 mm | - | 570 W/m² | - |
| 1787837408 | 22.78° C | 56% | 1019 hPa | 0 mm | - | 592 W/m² | - |
| 1787836806 | 22.78° C | 55% | 1019.3 hPa | 0 mm | - | 536 W/m² | - |
| 1787836205 | 22.78° C | 55% | 1019.3 hPa | 0 mm | - | 624 W/m² | - |
| 1787835608 | 22.22° C | 55% | 1019.3 hPa | 0 mm | - | 575 W/m² | - |
| 1787835006 | 22.22° C | 56% | 1019.4 hPa | 0 mm | - | 575 W/m² | - |
* Rain latest hour (hover to see other rain measurements)
** Current wind speed in m/s (hover to see current wind gust speed)